Orbital Elements at Epoch 2459200.5 (2020-Dec-17.0) TDB
Reference: JPL 23 (heliocentric ecliptic J2000)
Element | Value | Uncertainty (1-sigma) | Units |
e | .2892810668146114 | 4.0294e-08 | |
a | 2.55942974928913 | 9.7002e-09 | au |
q | 1.819035180977717 | 1.0694e-07 | au |
i | 5.00237419692497 | 4.8451e-06 | deg |
node | 125.4094201121931 | 3.7169e-05 | deg |
peri | 253.8971418255931 | 3.8919e-05 | deg |
M | 71.26314741620723 | 1.3754e-05 | deg |
tp | 2458904.442719117373 (2020-Feb-24.94271912) | 5.5777e-05 | TDB |
period | 1495.592392169679 4.09 | 8.5024e-06 2.328e-08 | d yr |
n | .2407072955738579 | 1.3684e-09 | deg/d |
Q | 3.299824317600543 | 1.2506e-08 | au |
|
| | Orbit Determination Parameters
Additional Information
|